Regional Weather Roundup
Issued by NWS

Home | Current Version | Previous Version | Graphics & Text | Print | Product List | Glossary On
Versions: 1 2 3 4 5 6 7 8 9 10 11 12 13 14 15 16 17 18 19 20 21 22 23 24 25 26 27 28 29 30 31 32 33 34 35 36 37 38 39 40 41 42 43 44 45 46 47 48 49 50
000
ASUS44 KMEG 291610
RWRTN
TENNESSEE HOURLY STATE WEATHER ROUNDUP
NATIONAL WEATHER SERVICE MEMPHIS TN
1100 AM CDT FRI AUG 29 2014

TNZ002-004-019-021-049-052-054-088>092-291700-
WEST TENNESSEE

CITY           SKY/WX    TMP DP  RH WIND       PRES   REMARKS
MEMPHIS INTL   MOSUNNY   89  70  53 VRB7      29.99S HX  94
NWS MEMPHIS      N/A     88 N/A N/A MISG        N/A
JACKSON        MOSUNNY   85  66  53 S3        30.00F
DYERSBURG      SUNNY     88  66  48 SW5       30.00S HX  90
UNION CITY     SUNNY     86  72  62 SW3       29.98F HX  92
PARIS          SUNNY     86  68  54 SW6       30.02S
HUNTINGDON     MOSUNNY   87  69  54 VRB3      30.00F HX  91
LEXINGTON      SUNNY     86  68  54 S5        30.01F
SAVANNAH       SUNNY     86  70  58 S6        30.02F HX  90
$$

TNZ008-025-027-028-033-062-065-066-291700-
NORTH MIDDLE TENNESSEE

CITY           SKY/WX    TMP DP  RH WIND       PRES   REMARKS
NASHVILLE      MOSUNNY   90  62  39 S13       30.05S HX  90
DICKSON        SUNNY     84  66  54 VRB3      30.04S
PORTLAND       SUNNY     88  66  48 S8        30.05S HX  90
CLARKSVILLE    SUNNY     85  70  60 SE5       30.02F
LEBANON        SUNNY     88  66  47 S5        30.05S HX  90
SMYRNA         SUNNY     90  65  43 VRB6      30.05F HX  92
MURFREESBORO   SUNNY     89  62  40 S6        30.05S
COOKEVILLE     SUNNY     88  68  51 S6        30.09S HX  91
GALLATIN       SUNNY     87  68  53 S7        30.06S HX  90
CROSSVILLE     SUNNY     83  62  49 VRB5      30.15S
$$

TNZ061-075-076-078-094-096-097-291700-
SOUTH MIDDLE TENNESSEE

CITY           SKY/WX    TMP DP  RH WIND       PRES   REMARKS
LEWISBURG      SUNNY     88  67  49 S5        30.05F HX  91
FAYETTEVILLE   SUNNY     82  64  54 SW5       30.08S
TULLAHOMA      SUNNY     86  63  45 SW3       30.10S
WINCHESTER     SUNNY     88  63  42 S6        30.09S
MCMINNVILLE    SUNNY     88  64  45 S3        30.09S
COLUMBIA         N/A     84  72  65 CALM      30.04S
SHELBYVILLE    SUNNY     88  66  48 S8        30.08S HX  90
$$

TNZ017-018-042-046-047-291700-
NORTHEAST TENNESSEE

CITY           SKY/WX    TMP DP  RH WIND       PRES   REMARKS
TRI CITIES     MOSUNNY   83  67  58 NE3       30.14S
ELIZABETHTON   MOSUNNY   82  66  57 CALM      30.14F
$$

TNZ012-013-036-069-073-074-291700-
CENTRAL EAST TENNESSEE

CITY           SKY/WX    TMP DP  RH WIND       PRES   REMARKS
KNOXVILLE      MOSUNNY   85  69  58 VRB3      30.09F
OAK RIDGE      SUNNY     85  70  60 VRB5      30.11F
GATLINBURG     SUNNY     86  66  51 VRB3      30.10F
MORRISTOWN     SUNNY     84  72  65 CALM      30.14S
$$

TNZ083-085-099-291700-
SOUTHEAST TENNESSEE

CITY           SKY/WX    TMP DP  RH WIND       PRES   REMARKS
CHATTANOOGA    MOSUNNY   87  66  49 NW6       30.09S
$$

SKY/WX REPORTED AS FAIR MEANS FEW OR NO CLOUDS BELOW
12 THOUSAND FEET.




USA.gov is the U.S. government's official web portal to all federal, state and local government web resources and services.